Tracking 28125 objects as of 3-Oct-2023
HD Live streaming from Space Station
objects crossing your sky now

ARIANE 1 DEB

Track ARIANE 1 DEB now!
10-day predictions


NORAD ID: 17429
Int'l Code: 1986-019FQ
Perigee: 668.3 km
Apogee: 751.6 km
Inclination: 99.1 °
Period: 98.8 minutes
Semi major axis: 7080 km
RCS: 0.0335 m2 (small)
Launch date: February 22, 1986
Source: France (FR)
Launch site: FRENCH GUIANA (FRGUI)

Note: This is SATELLITE DEBRIS
Your satellite tracking list
Your tracking list is empty




NASA's NSSDC Master Catalog

Two Line Element Set (TLE):
1 17429U 86019FQ  23275.36028420  .00012805  00000-0  27878-2 0  9991
2 17429  99.0832  62.3140 0058798 110.3082 250.4446 14.57021282926761
Source of the keplerian elements: AFSPC